| time (UTC) | temp C | wind direction | speed KPH | gust KPH | rain 1hr cm | rain 24hr cm | rain mn cm | humidity % | barometer mb |
| 20260504081513 | 7 | 290 | 0.0 | 0.0 | 0.00 | 0.00 | 0.00 | 72 | 1009.5 |
| 20260504050019 | 7 | 290 | 0.0 | 0.0 | 0.00 | 0.00 | 0.00 | 66 | 1010.2 |
| 20260504044518 | 7 | 289 | 0.0 | 0.0 | 0.00 | 0.00 | 0.00 | 66 | 1010.2 |
| 20260504043016 | 7 | 290 | 0.0 | 0.0 | 0.00 | 0.00 | 0.00 | 66 | 1010.8 |
| 20260504041512 | 7 | 290 | 0.0 | 0.0 | 0.00 | 0.00 | 0.00 | 66 | 1010.9 |
| 20260504040029 | 6 | 290 | 0.0 | 0.0 | 0.00 | 0.00 | 0.00 | 66 | 1010.7 |
| 20260504034511 | 6 | 289 | 0.0 | 0.0 | 0.00 | 0.00 | 0.00 | 66 | 1010.6 |
| 20260504033013 | 6 | 290 | 0.0 | 0.0 | 0.00 | 0.00 | 0.00 | 65 | 1010.3 |
| 20260504031512 | 6 | 289 | 0.0 | 0.0 | 0.00 | 0.00 | 0.00 | 63 | 1010.2 |
| 20260504030010 | 7 | 290 | 0.0 | 0.0 | 0.00 | 0.00 | 0.00 | 59 | 1010.2 |
| 20260504024509 | 7 | 289 | 0.0 | 0.0 | 0.00 | 0.00 | 0.00 | 58 | 1010.1 |
| 20260504023008 | 7 | 290 | 0.0 | 0.0 | 0.00 | 0.00 | 0.00 | 57 | 1010.1 |
| 20260504021508 | 7 | 290 | 0.0 | 0.0 | 0.00 | 0.00 | 0.00 | 56 | 1010.1 |
| 20260504020007 | 8 | 290 | 0.0 | 0.0 | 0.00 | 0.00 | 0.00 | 52 | 1010.2 |
| 20260504014636 | 8 | 290 | 0.0 | 0.0 | 0.00 | 0.00 | 0.00 | 51 | 1010.3 |
| 20260504013046 | 9 | 290 | 0.0 | 0.0 | 0.00 | 0.00 | 0.00 | 49 | 1010.3 |
| 20260504011546 | 10 | 290 | 0.0 | 0.0 | 0.00 | 0.00 | 0.00 | 45 | 1010.1 |
| 20260504010030 | 10 | 290 | 0.0 | 0.0 | 0.00 | 0.00 | 0.00 | 43 | 1010.0 |
| 20260504004540 | 11 | 290 | 0.0 | 1.6 | 0.00 | 0.00 | 0.00 | 41 | 1009.7 |
| 20260504003011 | 11 | 290 | 0.0 | 0.0 | 0.00 | 0.00 | 0.00 | 41 | 1009.7 |
| 20260504001509 | 11 | 290 | 0.0 | 1.6 | 0.00 | 0.00 | 0.00 | 39 | 1009.4 |
| 20260504000110 | 11 | 290 | 0.0 | 4.8 | 0.00 | 0.00 | 0.00 | 37 | 1009.2 |
| 20260503234551 | 12 | 287 | 0.0 | 3.2 | 0.00 | 0.00 | 0.00 | 35 | 1008.9 |
| 20260503233033 | 12 | 288 | 3.2 | 12.9 | 0.00 | 0.00 | 0.00 | 33 | 1008.7 |
| 20260503231532 | 12 | 281 | 1.6 | 11.3 | 0.00 | 0.00 | 0.00 | 33 | 1008.6 |
| 20260503230015 | 13 | 339 | 0.0 | 6.4 | 0.00 | 0.00 | 0.00 | 32 | 1008.4 |
| 20260503224513 | 13 | 277 | 3.2 | 14.5 | 0.00 | 0.00 | 0.00 | 31 | 1008.2 |
| 20260503223058 | 13 | 286 | 1.6 | 8.0 | 0.00 | 0.00 | 0.00 | 29 | 1008.1 |
| 20260503221558 | 13 | 260 | 4.8 | 12.9 | 0.00 | 0.00 | 0.00 | 28 | 1008.0 |
| 20260503220036 | 13 | 254 | 0.0 | 12.9 | 0.00 | 0.00 | 0.00 | 29 | 1008.0 |
| 20260503214535 | 13 | 292 | 4.8 | 14.5 | 0.00 | 0.00 | 0.00 | 29 | 1007.9 |
| 20260503213019 | 13 | 265 | 4.8 | 17.7 | 0.00 | 0.00 | 0.00 | 28 | 1008.0 |
| 20260503211516 | 13 | 286 | 1.6 | 9.7 | 0.00 | 0.00 | 0.00 | 31 | 1008.0 |
| 20260503210055 | 13 | 259 | 4.8 | 12.9 | 0.00 | 0.00 | 0.00 | 31 | 1008.0 |
| 20260503204553 | 12 | 300 | 0.0 | 14.5 | 0.00 | 0.00 | 0.00 | 33 | 1008.4 |
| 20260503203035 | 12 | 292 | 4.8 | 17.7 | 0.00 | 0.00 | 0.00 | 33 | 1008.5 |
| 20260503201534 | 12 | 284 | 1.6 | 16.1 | 0.00 | 0.00 | 0.00 | 34 | 1008.6 |
| 20260503200018 | 12 | 289 | 6.4 | 19.3 | 0.00 | 0.00 | 0.00 | 34 | 1008.7 |
| 20260503194512 | 12 | 317 | 4.8 | 14.5 | 0.00 | 0.00 | 0.00 | 35 | 1008.9 |
| 20260503193059 | 11 | 297 | 3.2 | 14.5 | 0.00 | 0.00 | 0.00 | 38 | 1009.2 |
| 20260503191554 | 11 | 293 | 4.8 | 14.5 | 0.00 | 0.00 | 0.00 | 38 | 1009.3 |
| 20260503190032 | 11 | 308 | 1.6 | 12.9 | 0.00 | 0.00 | 0.00 | 39 | 1009.4 |
| 20260503184530 | 10 | 278 | 0.0 | 12.9 | 0.00 | 0.00 | 0.00 | 40 | 1009.6 |
| 20260503183013 | 11 | 270 | 4.8 | 17.7 | 0.00 | 0.00 | 0.00 | 38 | 1009.8 |
| 20260503181510 | 10 | 291 | 0.0 | 8.0 | 0.00 | 0.00 | 0.00 | 41 | 1009.7 |
| 20260503180051 | 10 | 284 | 3.2 | 9.7 | 0.00 | 0.00 | 0.00 | 39 | 1009.8 |
| 20260503174550 | 10 | 287 | 3.2 | 12.9 | 0.00 | 0.00 | 0.00 | 41 | 1010.3 |
| 20260503173033 | 10 | 275 | 4.8 | 11.3 | 0.00 | 0.00 | 0.00 | 40 | 1010.3 |
| 20260503171530 | 10 | 304 | 1.6 | 14.5 | 0.00 | 0.00 | 0.00 | 40 | 1010.1 |
| 20260503150104 | 8 | 259 | 4.8 | 19.3 | 0.00 | 0.00 | 0.00 | 42 | 1010.3 |